Regional Weather Roundup
Issued by NWS

Home | Current Version | Previous Version | Text Only | Print | Product List | Glossary Off
Versions: 1 2 3 4 5 6 7 8 9 10 11 12 13 14 15 16 17 18 19 20 21 22 23 24 25 26 27 28 29 30 31 32 33 34 35 36 37 38 39 40 41 42 43 44 45 46 47 48 49 50

000
ASUS43 KFSD 210010
RWRSD

WEATHER ROUNDUP FOR SOUTH DAKOTA
NATIONAL WEATHER SERVICE SIOUX FALLS SD
600 PM CST MON FEB 20 2017

NOTE: "FAIR" INDICATES FEW OR NO CLOUDS BELOW 12,000 FEET WITH NO
SIGNIFICANT WEATHER AND/OR OBSTRUCTIONS TO VISIBILITY.


SDZ001>005-009-010-012>017-210100-
NORTHWEST AND NORTH CENTRAL SOUTH DAKOTA

CITY           SKY/WX    TMP DP  RH WIND       PRES   REMARKS
BUFFALO          N/A     54  25  32 S9        29.68S
FAITH            N/A     51  28  41 SW5       29.77F
MOBRIDGE       CLEAR     50  37  61 N3        29.75F
$$

SDZ012>016-024>037-041>051-057-063-072>074-210100-
SOUTHWEST AND SOUTH CENTRAL SOUTH DAKOTA

CITY           SKY/WX    TMP DP  RH WIND       PRES   REMARKS
RAPID CTY ARPT CLEAR     61  19  19 SW8       29.79F
PIERRE         CLEAR     53  30  41 NW9       29.80S
CUSTER         CLEAR     49  22  34 SW13G22   29.86R
ELLSWORTH AFB  CLEAR     61  19  19 SW7       29.78F
PHILIP         CLEAR     60  27  28 CALM      29.81S
PINE RIDGE     CLEAR     57  24  28 CALM      29.85S
SPEARFISH      FAIR      57  23  26 SW16G23   29.77F
WINNER         FAIR      57  28  33 NW8       29.85R
$$

SDZ004>011-016>023-039-040-210100-
NORTHEAST SOUTH DAKOTA

CITY           SKY/WX    TMP DP  RH WIND       PRES   REMARKS
ABERDEEN       CLEAR     45  36  70 W17       29.79R
WATERTOWN      CLEAR     44  39  82 W13       29.76R
BROOKINGS      CLEAR     46  41  82 W15       29.77R
SISSETON         N/A     41  39  93 NW13      29.73R
$$

SDZ017-020-022-023-036>040-048>070-210100-
SOUTHEAST SOUTH DAKOTA

CITY           SKY/WX    TMP DP  RH WIND       PRES   REMARKS
SIOUX FALLS    PTCLDY    50  43  77 NW13      29.80R
HURON          CLEAR     50  42  74 NW10      29.81R
CHAMBERLAIN    CLEAR     56  34  44 NW5       29.84R
MITCHELL       CLEAR     54  40  59 NW12      29.83R
YANKTON        CLEAR     54  41  62 W10       29.83R
$$

ABBREVIATIONS USED IN REMARKS
   TC - TEMPERATURE IN CELSIUS
  WCI - WIND CHILL INDEX
   HX - HEAT INDEX
  VSB - VISIBILITY





USA.gov is the U.S. government's official web portal to all federal, state and local government web resources and services.